CZ-6A DEB, 58430

Orbit data source: Space-Track

CZ-6A DEB, 58430 is space debris in SSO originally from a launch on Fri, 11 Nov 2022 UTC launched from the Taiyaun Space Center, China (TSC). Debris objects in space refer to the collection of defunct objects orbiting the Earth. Examples of debris include non-operational satellites, rocket bodies, and fragments generated from explosions, collisions, or faulty payload assembly.

Loading next visibility...
Identifier
58430, 2022-151AHY
Orbit
SSO
Country
Flag of CNCN / PRC
Related business
Manufacturer
SAST
Mission
Spacecraft
Bus & Motor
Unknown
Mass
Unknown
Launch date (UTC)
2022-11-11 (3 years ago)
Launch vehicle
Unknown
Launch site
Taiyaun Space Center, China (TSC)
Object type
Payload
Rocket body
Debris
Shape & HBR
Unknown shape, 1.1 m
Radar Cross Section
Small (<0.1 m²)

Expand to show TLE details & history
Last TLE update: 4 days ago

TLE from 4 days ago
0 CZ-6A DEB
1 58430U 22151AHY 25346.42369801  .00007962  00000-0  41480-2 0  9997
2 58430  98.8966 340.6785 0087679 179.4115 180.7176 14.12841174 52512
Epoch: 2025-12-12T10:10Z
TLE epoch observation values (Epoch: 2025-12-12T10:10:07.508Z)
Latitude
0.00006°
Longitude
106.78168°
Altitude
915.945 km
Speed
7.362 km/s
True Right ascension
22h 42m 42s
True Declination
0° 00' 00"
Sunlit
Object was in daylight at epoch
Visualization orbit readout
Latitude
Unknown
Longitude
Unknown
Altitude
Unknown
Speed
Unknown
Apparent Right ascension
Unknown
Apparent Declination
Unknown
Sunlit
N/A
Visualization observer readout
Local Sidereal Time
11:31:31
Azimuth
Unknown
Elevation
Unknown
Doppler factor
Unknown
Orbital elements
Apogee altitude
910.19 km
Perigee altitude
783.495 km
Semi-major axis
7,224.979 km
Eccentricity
0.00877
Inclination
98.8966°
RAAN
340.6785°
Arg. of periapsis
179.4115°
True anomaly
180.70515°
Mean anomaly
180.7176°
Eccentric anomaly
180.71136°
Mean motion
3.53418 °/min
Orbital period
101.86 mins
BSTAR
0.004148
Loading maneuver chart data...
Computing Atmospheric mass density...
Loading historical data...
Loading historical data...
Loading historical data...
Loading historical data...
Loading historical data...
Loading historical data...
Loading historical data...

Documentation

Showing up to 5 results
|